| time (UTC) | temp C | wind direction | speed KPH | gust KPH | rain 1hr cm | rain 24hr cm | rain mn cm | humidity % | barometer mb |
| 20260902070408 | 17 | 118 | 8.0 | 8.0 | 0.00 | 0.00 | 0.00 | 76 | 1014.9 |
| 20260902065906 | 17 | 103 | 4.8 | 4.8 | 0.00 | 0.00 | 0.00 | 75 | 1014.9 |
| 20260902065356 | 17 | 117 | 6.4 | 8.0 | 0.00 | 0.00 | 0.00 | 75 | 1014.8 |
| 20260902064851 | 17 | 94 | 4.8 | 4.8 | 0.00 | 0.00 | 0.00 | 75 | 1014.6 |
| 20260902064347 | 17 | 104 | 4.8 | 4.8 | 0.00 | 0.00 | 0.00 | 74 | 1014.8 |
| 20260902063842 | 17 | 115 | 8.0 | 9.7 | 0.00 | 0.00 | 0.00 | 74 | 1014.8 |
| 20260902063336 | 17 | 101 | 8.0 | 9.7 | 0.00 | 0.00 | 0.00 | 74 | 1014.5 |
| 20260902062830 | 16 | 108 | 4.8 | 4.8 | 0.00 | 0.00 | 0.00 | 76 | 1014.4 |
| 20260902062325 | 16 | 91 | 1.6 | 1.6 | 0.00 | 0.00 | 0.00 | 76 | 1014.4 |
| 20260902061825 | 16 | 81 | 1.6 | 3.2 | 0.00 | 0.00 | 0.00 | 76 | 1014.4 |
| 20260902061320 | 16 | 126 | 3.2 | 3.2 | 0.00 | 0.00 | 0.00 | 76 | 1014.5 |
| 20260902060817 | 16 | 100 | 1.6 | 3.2 | 0.00 | 0.00 | 0.00 | 77 | 1014.4 |
| 20260902060312 | 16 | 91 | 3.2 | 3.2 | 0.00 | 0.00 | 0.00 | 75 | 1014.6 |
| 20260902055808 | 17 | 75 | 4.8 | 4.8 | 0.00 | 0.00 | 0.00 | 74 | 1014.5 |
| 20260902055307 | 17 | 73 | 3.2 | 3.2 | 0.00 | 0.00 | 0.00 | 75 | 1014.4 |
| 20260902054759 | 17 | 89 | 4.8 | 4.8 | 0.00 | 0.00 | 0.00 | 74 | 1014.5 |
| 20260902054254 | 17 | 114 | 4.8 | 4.8 | 0.00 | 0.00 | 0.00 | 73 | 1014.5 |
| 20260902053750 | 17 | 87 | 3.2 | 3.2 | 0.00 | 0.00 | 0.00 | 72 | 1014.6 |
| 20260902053249 | 18 | 71 | 6.4 | 8.0 | 0.00 | 0.00 | 0.00 | 71 | 1014.5 |
| 20260902052748 | 18 | 55 | 4.8 | 4.8 | 0.00 | 0.00 | 0.00 | 70 | 1014.3 |
| 20260902052244 | 18 | 63 | 4.8 | 4.8 | 0.00 | 0.00 | 0.00 | 70 | 1014.4 |
| 20260902051743 | 18 | 60 | 4.8 | 4.8 | 0.00 | 0.00 | 0.00 | 69 | 1014.5 |
| 20260902051238 | 18 | 62 | 4.8 | 4.8 | 0.00 | 0.00 | 0.00 | 69 | 1014.5 |
| 20260902050732 | 18 | 66 | 6.4 | 9.7 | 0.00 | 0.00 | 0.00 | 70 | 1014.5 |
| 20260902050222 | 18 | 70 | 6.4 | 8.0 | 0.00 | 0.00 | 0.00 | 70 | 1014.5 |
| 20260902045723 | 18 | 81 | 4.8 | 8.0 | 0.00 | 0.00 | 0.00 | 70 | 1014.5 |
| 20260902045219 | 18 | 65 | 8.0 | 8.0 | 0.00 | 0.00 | 0.00 | 69 | 1014.4 |
| 20260902044714 | 18 | 72 | 4.8 | 4.8 | 0.00 | 0.00 | 0.00 | 69 | 1014.6 |
| 20260902044209 | 18 | 100 | 4.8 | 8.0 | 0.00 | 0.00 | 0.00 | 67 | 1014.9 |
| 20260902043659 | 18 | 119 | 6.4 | 8.0 | 0.00 | 0.00 | 0.00 | 67 | 1014.8 |
| 20260902043154 | 18 | 89 | 4.8 | 4.8 | 0.00 | 0.00 | 0.00 | 67 | 1014.6 |
| 20260902042653 | 18 | 80 | 4.8 | 4.8 | 0.00 | 0.00 | 0.00 | 66 | 1014.6 |
| 20260902042148 | 18 | 102 | 4.8 | 4.8 | 0.00 | 0.00 | 0.00 | 68 | 1014.9 |
| 20260902041648 | 18 | 75 | 4.8 | 4.8 | 0.00 | 0.00 | 0.00 | 69 | 1015.0 |
| 20260902041142 | 18 | 81 | 4.8 | 4.8 | 0.00 | 0.00 | 0.00 | 68 | 1014.6 |
| 20260902040642 | 18 | 76 | 6.4 | 8.0 | 0.00 | 0.00 | 0.00 | 67 | 1014.4 |
| 20260902040137 | 18 | 66 | 4.8 | 4.8 | 0.00 | 0.00 | 0.00 | 67 | 1015.0 |
| 20260902035635 | 18 | 79 | 1.6 | 3.2 | 0.00 | 0.00 | 0.00 | 69 | 1014.9 |
| 20260902035131 | 19 | 76 | 3.2 | 4.8 | 0.00 | 0.00 | 0.00 | 67 | 1014.9 |
| 20260902034630 | 19 | 74 | 4.8 | 4.8 | 0.00 | 0.00 | 0.00 | 66 | 1014.8 |
| 20260902034125 | 19 | 83 | 6.4 | 8.0 | 0.00 | 0.00 | 0.00 | 66 | 1014.8 |
| 20260902033625 | 19 | 69 | 4.8 | 4.8 | 0.00 | 0.00 | 0.00 | 66 | 1014.9 |
| 20260902033119 | 19 | 82 | 3.2 | 3.2 | 0.00 | 0.00 | 0.00 | 66 | 1014.8 |
| 20260902032618 | 20 | 80 | 4.8 | 4.8 | 0.00 | 0.00 | 0.00 | 64 | 1014.9 |
| 20260902032112 | 20 | 70 | 4.8 | 4.8 | 0.00 | 0.00 | 0.00 | 63 | 1014.6 |
| 20260902031607 | 20 | 70 | 4.8 | 4.8 | 0.00 | 0.00 | 0.00 | 63 | 1014.5 |
| 20260902031104 | 20 | 76 | 6.4 | 8.0 | 0.00 | 0.00 | 0.00 | 62 | 1014.6 |
| 20260902030603 | 20 | 71 | 6.4 | 8.0 | 0.00 | 0.00 | 0.00 | 62 | 1014.5 |
| 20260902030058 | 20 | 88 | 4.8 | 4.8 | 0.00 | 0.00 | 0.00 | 63 | 1014.9 |
| 20260902025557 | 20 | 79 | 4.8 | 4.8 | 0.00 | 0.00 | 0.00 | 64 | 1014.8 |
| 20260902025047 | 19 | 63 | 6.4 | 8.0 | 0.00 | 0.00 | 0.00 | 64 | 1015.0 |
| 20260902024542 | 20 | 76 | 4.8 | 4.8 | 0.00 | 0.00 | 0.00 | 66 | 1015.0 |
| 20260902024037 | 20 | 79 | 3.2 | 3.2 | 0.00 | 0.00 | 0.00 | 65 | 1014.8 |
| 20260902023533 | 20 | 69 | 4.8 | 4.8 | 0.00 | 0.00 | 0.00 | 66 | 1014.9 |
| 20260902023027 | 20 | 64 | 3.2 | 3.2 | 0.00 | 0.00 | 0.00 | 67 | 1014.6 |
| 20260902022522 | 20 | 60 | 4.8 | 8.0 | 0.00 | 0.00 | 0.00 | 67 | 1014.6 |
| 20260902022018 | 20 | 74 | 3.2 | 3.2 | 0.00 | 0.00 | 0.00 | 67 | 1014.8 |
| 20260902021513 | 20 | 67 | 3.2 | 3.2 | 0.00 | 0.00 | 0.00 | 66 | 1014.6 |
| 20260902021008 | 20 | 71 | 3.2 | 3.2 | 0.00 | 0.00 | 0.00 | 67 | 1014.6 |
| 20260902020504 | 20 | 95 | 3.2 | 4.8 | 0.00 | 0.00 | 0.00 | 69 | 1014.5 |
| 20260902015959 | 20 | 100 | 1.6 | 3.2 | 0.00 | 0.00 | 0.00 | 69 | 1014.8 |
| 20260902015455 | 20 | 102 | 3.2 | 3.2 | 0.00 | 0.00 | 0.00 | 70 | 1014.4 |
| 20260902014950 | 20 | 104 | 1.6 | 3.2 | 0.00 | 0.00 | 0.00 | 69 | 1014.5 |
| 20260902014447 | 20 | 87 | 1.6 | 1.6 | 0.00 | 0.00 | 0.00 | 69 | 1014.5 |
| 20260902013947 | 20 | 87 | 4.8 | 4.8 | 0.00 | 0.00 | 0.00 | 67 | 1014.3 |
| 20260902013441 | 20 | 74 | 3.2 | 3.2 | 0.00 | 0.00 | 0.00 | 67 | 1014.3 |
| 20260902012936 | 20 | 73 | 1.6 | 3.2 | 0.00 | 0.00 | 0.00 | 67 | 1014.5 |
| 20260902012432 | 21 | 90 | 1.6 | 1.6 | 0.00 | 0.00 | 0.00 | 65 | 1014.5 |
| 20260902011928 | 21 | 75 | 1.6 | 1.6 | 0.00 | 0.00 | 0.00 | 65 | 1014.5 |
| 20260902011422 | 21 | 91 | 1.6 | 1.6 | 0.00 | 0.00 | 0.00 | 66 | 1014.4 |
| 20260902010916 | 21 | 107 | 3.2 | 3.2 | 0.00 | 0.00 | 0.00 | 65 | 1014.6 |
| 20260902010412 | 21 | 95 | 1.6 | 3.2 | 0.00 | 0.00 | 0.00 | 66 | 1014.6 |
| 20260902005910 | 21 | 95 | 1.6 | 3.2 | 0.00 | 0.00 | 0.00 | 66 | 1014.5 |
| 20260902005410 | 22 | 87 | 1.6 | 1.6 | 0.00 | 0.00 | 0.00 | 67 | 1014.8 |
| 20260902004906 | 22 | 86 | 1.6 | 1.6 | 0.00 | 0.00 | 0.00 | 67 | 1014.6 |
| 20260902004405 | 22 | 79 | 3.2 | 3.2 | 0.00 | 0.00 | 0.00 | 63 | 1014.5 |
| 20260902003901 | 22 | 73 | 1.6 | 1.6 | 0.00 | 0.00 | 0.00 | 63 | 1014.6 |
| 20260902003356 | 22 | 74 | 1.6 | 1.6 | 0.00 | 0.00 | 0.00 | 62 | 1014.9 |
| 20260902002852 | 22 | 62 | 1.6 | 1.6 | 0.00 | 0.00 | 0.00 | 61 | 1014.6 |
| 20260902002350 | 22 | 75 | 1.6 | 1.6 | 0.00 | 0.00 | 0.00 | 61 | 1014.3 |
| 20260902001846 | 22 | 73 | 0.0 | 0.0 | 0.00 | 0.00 | 0.00 | 60 | 1014.8 |
| 20260902001341 | 23 | 63 | 1.6 | 1.6 | 0.00 | 0.00 | 0.00 | 61 | 1014.5 |
| 20260902000836 | 23 | 79 | 3.2 | 3.2 | 0.00 | 0.00 | 0.00 | 59 | 1014.6 |
| 20260902000337 | 23 | 74 | 0.0 | 0.0 | 0.00 | 0.00 | 0.00 | 59 | 1014.9 |
| 20260901235831 | 23 | 96 | 0.0 | 0.0 | 0.00 | 0.00 | 0.00 | 57 | 1014.8 |
| 20260901235330 | 23 | 113 | 3.2 | 3.2 | 0.00 | 0.00 | 0.00 | 55 | 1014.8 |
| 20260901234825 | 23 | 126 | 1.6 | 3.2 | 0.00 | 0.00 | 0.00 | 55 | 1015.0 |
| 20260901234319 | 23 | 126 | 1.6 | 1.6 | 0.00 | 0.00 | 0.00 | 56 | 1014.5 |
| 20260901233815 | 23 | 135 | 4.8 | 4.8 | 0.00 | 0.00 | 0.00 | 55 | 1015.1 |
| 20260901233311 | 23 | 132 | 3.2 | 4.8 | 0.00 | 0.00 | 0.00 | 57 | 1015.0 |
| 20260901232806 | 23 | 130 | 3.2 | 3.2 | 0.00 | 0.00 | 0.00 | 58 | 1015.3 |
| 20260901232301 | 23 | 124 | 3.2 | 3.2 | 0.00 | 0.00 | 0.00 | 58 | 1015.1 |
| 20260901231757 | 23 | 120 | 4.8 | 4.8 | 0.00 | 0.00 | 0.00 | 57 | 1014.9 |
| 20260901231253 | 23 | 146 | 4.8 | 4.8 | 0.00 | 0.00 | 0.00 | 56 | 1015.0 |
| 20260901230749 | 23 | 108 | 1.6 | 3.2 | 0.00 | 0.00 | 0.00 | 57 | 1015.2 |
| 20260901230248 | 23 | 109 | 1.6 | 3.2 | 0.00 | 0.00 | 0.00 | 56 | 1015.0 |
| 20260901225744 | 23 | 116 | 4.8 | 4.8 | 0.00 | 0.00 | 0.00 | 55 | 1014.9 |
| 20260901225238 | 23 | 121 | 3.2 | 3.2 | 0.00 | 0.00 | 0.00 | 55 | 1014.9 |
| 20260901224734 | 23 | 106 | 1.6 | 1.6 | 0.00 | 0.00 | 0.00 | 54 | 1015.1 |
| 20260901224225 | 23 | 112 | 3.2 | 3.2 | 0.00 | 0.00 | 0.00 | 53 | 1014.9 |
| 20260901223721 | 23 | 119 | 3.2 | 3.2 | 0.00 | 0.00 | 0.00 | 55 | 1015.1 |
| 20260901223215 | 23 | 103 | 3.2 | 3.2 | 0.00 | 0.00 | 0.00 | 53 | 1014.8 |
| 20260901222711 | 23 | 108 | 1.6 | 1.6 | 0.00 | 0.00 | 0.00 | 54 | 1014.9 |
| 20260901222208 | 23 | 115 | 4.8 | 4.8 | 0.00 | 0.00 | 0.00 | 51 | 1015.0 |
| 20260901221703 | 23 | 106 | 4.8 | 4.8 | 0.00 | 0.00 | 0.00 | 52 | 1015.1 |
| 20260901221159 | 23 | 104 | 3.2 | 3.2 | 0.00 | 0.00 | 0.00 | 52 | 1015.1 |
| 20260901220658 | 23 | 108 | 4.8 | 4.8 | 0.00 | 0.00 | 0.00 | 50 | 1015.3 |
| 20260901220157 | 24 | 127 | 3.2 | 3.2 | 0.00 | 0.00 | 0.00 | 49 | 1015.2 |
| 20260901215655 | 24 | 129 | 3.2 | 3.2 | 0.00 | 0.00 | 0.00 | 50 | 1015.2 |
| 20260901215150 | 24 | 132 | 4.8 | 4.8 | 0.00 | 0.00 | 0.00 | 50 | 1015.3 |
| 20260901214648 | 24 | 123 | 3.2 | 3.2 | 0.00 | 0.00 | 0.00 | 50 | 1015.4 |
| 20260901214143 | 24 | 128 | 4.8 | 4.8 | 0.00 | 0.00 | 0.00 | 50 | 1015.5 |
| 20260901213642 | 24 | 135 | 3.2 | 3.2 | 0.00 | 0.00 | 0.00 | 50 | 1015.3 |
| 20260901213137 | 24 | 134 | 3.2 | 3.2 | 0.00 | 0.00 | 0.00 | 48 | 1015.3 |
| 20260901212637 | 25 | 149 | 3.2 | 3.2 | 0.00 | 0.00 | 0.00 | 48 | 1015.3 |
| 20260901212133 | 25 | 141 | 1.6 | 1.6 | 0.00 | 0.00 | 0.00 | 51 | 1015.5 |
| 20260901211627 | 25 | 108 | 3.2 | 3.2 | 0.00 | 0.00 | 0.00 | 46 | 1015.3 |
| 20260901211124 | 25 | 102 | 1.6 | 3.2 | 0.00 | 0.00 | 0.00 | 47 | 1015.3 |
| 20260901210620 | 25 | 148 | 1.6 | 3.2 | 0.00 | 0.00 | 0.00 | 45 | 1015.6 |
| 20260901210116 | 25 | 157 | 4.8 | 4.8 | 0.00 | 0.00 | 0.00 | 45 | 1015.4 |
| 20260901205611 | 25 | 142 | 1.6 | 3.2 | 0.00 | 0.00 | 0.00 | 46 | 1015.6 |
| 20260901205105 | 25 | 108 | 4.8 | 4.8 | 0.00 | 0.00 | 0.00 | 46 | 1015.6 |
| 20260901204602 | 25 | 182 | 4.8 | 4.8 | 0.00 | 0.00 | 0.00 | 47 | 1015.8 |
| 20260901204056 | 25 | 135 | 4.8 | 4.8 | 0.00 | 0.00 | 0.00 | 48 | 1015.5 |
| 20260901203550 | 25 | 149 | 4.8 | 4.8 | 0.00 | 0.00 | 0.00 | 48 | 1015.7 |
| 20260901203046 | 25 | 160 | 4.8 | 4.8 | 0.00 | 0.00 | 0.00 | 47 | 1015.6 |
| 20260901202545 | 25 | 158 | 3.2 | 3.2 | 0.00 | 0.00 | 0.00 | 49 | 1015.7 |
| 20260901202042 | 25 | 186 | 3.2 | 3.2 | 0.00 | 0.00 | 0.00 | 48 | 1015.7 |
| 20260901201537 | 25 | 179 | 3.2 | 3.2 | 0.00 | 0.00 | 0.00 | 48 | 1015.8 |
| 20260901201036 | 25 | 181 | 3.2 | 3.2 | 0.00 | 0.00 | 0.00 | 47 | 1015.6 |
| 20260901200536 | 25 | 190 | 3.2 | 3.2 | 0.00 | 0.00 | 0.00 | 48 | 1015.9 |
| 20260901200031 | 25 | 151 | 3.2 | 3.2 | 0.00 | 0.00 | 0.00 | 46 | 1016.0 |
| 20260901195528 | 25 | 156 | 1.6 | 1.6 | 0.00 | 0.00 | 0.00 | 46 | 1016.2 |
| 20260901195023 | 25 | 215 | 6.4 | 8.0 | 0.00 | 0.00 | 0.00 | 45 | 1016.1 |
| 20260901194518 | 25 | 222 | 6.4 | 9.7 | 0.00 | 0.00 | 0.00 | 44 | 1016.2 |
| 20260901194014 | 25 | 228 | 6.4 | 8.0 | 0.00 | 0.00 | 0.00 | 44 | 1016.0 |
| 20260901193513 | 25 | 201 | 3.2 | 3.2 | 0.00 | 0.00 | 0.00 | 42 | 1016.1 |
| 20260901193014 | 25 | 231 | 1.6 | 3.2 | 0.00 | 0.00 | 0.00 | 43 | 1016.2 |
| 20260901192509 | 26 | 331 | 4.8 | 4.8 | 0.00 | 0.00 | 0.00 | 42 | 1016.0 |
| 20260901192004 | 26 | 147 | 3.2 | 3.2 | 0.00 | 0.00 | 0.00 | 43 | 1016.2 |
| 20260901191500 | 26 | 177 | 4.8 | 4.8 | 0.00 | 0.00 | 0.00 | 41 | 1016.2 |
| 20260901190955 | 26 | 249 | 4.8 | 8.0 | 0.00 | 0.00 | 0.00 | 40 | 1016.2 |
| 20260901190451 | 26 | 189 | 9.7 | 11.3 | 0.00 | 0.00 | 0.00 | 41 | 1016.1 |
| 20260901185949 | 26 | 189 | 6.4 | 8.0 | 0.00 | 0.00 | 0.00 | 43 | 1016.2 |
| 20260901185443 | 26 | 188 | 4.8 | 4.8 | 0.00 | 0.00 | 0.00 | 44 | 1016.4 |
| 20260901184943 | 25 | 184 | 1.6 | 3.2 | 0.00 | 0.00 | 0.00 | 46 | 1016.3 |
| 20260901184439 | 25 | 224 | 6.4 | 8.0 | 0.00 | 0.00 | 0.00 | 45 | 1016.3 |
| 20260901183934 | 25 | 154 | 1.6 | 3.2 | 0.00 | 0.00 | 0.00 | 45 | 1016.3 |
| 20260901183433 | 24 | 189 | 4.8 | 4.8 | 0.00 | 0.00 | 0.00 | 44 | 1016.2 |
| 20260901182929 | 24 | 195 | 4.8 | 4.8 | 0.00 | 0.00 | 0.00 | 44 | 1016.3 |
| 20260901182425 | 25 | 145 | 1.6 | 1.6 | 0.00 | 0.00 | 0.00 | 45 | 1016.4 |
| 20260901181919 | 24 | 263 | 1.6 | 1.6 | 0.00 | 0.00 | 0.00 | 45 | 1016.3 |
| 20260901181414 | 25 | 203 | 3.2 | 3.2 | 0.00 | 0.00 | 0.00 | 44 | 1016.3 |
| 20260901180912 | 25 | 323 | 3.2 | 3.2 | 0.00 | 0.00 | 0.00 | 46 | 1016.2 |
| 20260901180407 | 24 | 43 | 4.8 | 4.8 | 0.00 | 0.00 | 0.00 | 48 | 1016.7 |
| 20260901175905 | 24 | 43 | 4.8 | 4.8 | 0.00 | 0.00 | 0.00 | 48 | 1016.7 |
| 20260901175400 | 24 | 4 | 0.0 | 0.0 | 0.00 | 0.00 | 0.00 | 47 | 1016.4 |
| 20260901174856 | 25 | 254 | 4.8 | 4.8 | 0.00 | 0.00 | 0.00 | 48 | 1016.6 |
| 20260901174352 | 24 | 162 | 1.6 | 1.6 | 0.00 | 0.00 | 0.00 | 51 | 1016.8 |
| 20260901173847 | 25 | 183 | 1.6 | 1.6 | 0.00 | 0.00 | 0.00 | 51 | 1016.7 |
| 20260901173341 | 24 | 146 | 3.2 | 3.2 | 0.00 | 0.00 | 0.00 | 51 | 1016.8 |
| 20260901172838 | 24 | 179 | 4.8 | 4.8 | 0.00 | 0.00 | 0.00 | 54 | 1016.9 |
| 20260901172337 | 25 | 197 | 4.8 | 4.8 | 0.00 | 0.00 | 0.00 | 52 | 1016.9 |
| 20260901171836 | 24 | 228 | 6.4 | 8.0 | 0.00 | 0.00 | 0.00 | 54 | 1016.8 |
| 20260901171335 | 25 | 77 | 0.0 | 1.6 | 0.00 | 0.00 | 0.00 | 50 | 1016.8 |
| 20260901170834 | 25 | 169 | 3.2 | 3.2 | 0.00 | 0.00 | 0.00 | 52 | 1016.9 |
| 20260901170328 | 24 | 149 | 3.2 | 3.2 | 0.00 | 0.00 | 0.00 | 55 | 1016.8 |
| 20260901165827 | 25 | 272 | 6.4 | 8.0 | 0.00 | 0.00 | 0.00 | 55 | 1017.0 |
| 20260901165322 | 24 | 136 | 1.6 | 3.2 | 0.00 | 0.00 | 0.00 | 52 | 1016.8 |
| 20260901164819 | 25 | 54 | 3.2 | 3.2 | 0.00 | 0.00 | 0.00 | 55 | 1016.7 |
| 20260901164314 | 24 | 104 | 1.6 | 3.2 | 0.00 | 0.00 | 0.00 | 54 | 1016.8 |
| 20260901163808 | 23 | 91 | 3.2 | 3.2 | 0.00 | 0.00 | 0.00 | 54 | 1016.8 |
| 20260901163303 | 23 | 99 | 3.2 | 3.2 | 0.00 | 0.00 | 0.00 | 57 | 1016.9 |
| 20260901162758 | 23 | 106 | 1.6 | 1.6 | 0.00 | 0.00 | 0.00 | 57 | 1017.0 |
| 20260901162257 | 23 | 161 | 4.8 | 8.0 | 0.00 | 0.00 | 0.00 | 55 | 1017.0 |
| 20260901161756 | 23 | 121 | 1.6 | 1.6 | 0.00 | 0.00 | 0.00 | 58 | 1016.9 |
| 20260901161250 | 23 | 45 | 1.6 | 1.6 | 0.00 | 0.00 | 0.00 | 56 | 1017.2 |
| 20260901160747 | 23 | 76 | 1.6 | 1.6 | 0.00 | 0.00 | 0.00 | 57 | 1017.0 |
| 20260901160243 | 22 | 135 | 1.6 | 1.6 | 0.00 | 0.00 | 0.00 | 56 | 1017.0 |
| 20260901155741 | 23 | 115 | 3.2 | 3.2 | 0.00 | 0.00 | 0.00 | 59 | 1016.8 |
| 20260901155236 | 23 | 94 | 0.0 | 0.0 | 0.00 | 0.00 | 0.00 | 59 | 1017.1 |
| 20260901154732 | 23 | 138 | 3.2 | 3.2 | 0.00 | 0.00 | 0.00 | 61 | 1016.8 |
| 20260901154226 | 23 | 74 | 0.0 | 0.0 | 0.00 | 0.00 | 0.00 | 58 | 1016.7 |
| 20260901153721 | 22 | 356 | 0.0 | 0.0 | 0.00 | 0.00 | 0.00 | 58 | 1017.0 |
| 20260901153220 | 22 | 106 | 1.6 | 1.6 | 0.00 | 0.00 | 0.00 | 65 | 1017.2 |
| 20260901152715 | 22 | 108 | 3.2 | 3.2 | 0.00 | 0.00 | 0.00 | 65 | 1016.8 |
| 20260901152213 | 21 | 155 | 3.2 | 3.2 | 0.00 | 0.00 | 0.00 | 64 | 1016.9 |
| 20260901151710 | 21 | 131 | 0.0 | 1.6 | 0.00 | 0.00 | 0.00 | 61 | 1016.8 |
| 20260901151209 | 22 | 125 | 3.2 | 3.2 | 0.00 | 0.00 | 0.00 | 61 | 1017.0 |
| 20260901150708 | 21 | 69 | 0.0 | 0.0 | 0.00 | 0.00 | 0.00 | 60 | 1017.0 |
| 20260901150206 | 21 | 86 | 0.0 | 0.0 | 0.00 | 0.00 | 0.00 | 63 | 1017.0 |
| 20260901145704 | 21 | 79 | 0.0 | 1.6 | 0.00 | 0.00 | 0.00 | 61 | 1016.8 |
| 20260901145159 | 20 | 71 | 0.0 | 0.0 | 0.00 | 0.00 | 0.00 | 64 | 1017.0 |
| 20260901144655 | 20 | 41 | 3.2 | 3.2 | 0.00 | 0.00 | 0.00 | 65 | 1017.1 |
| 20260901144149 | 19 | 318 | 1.6 | 3.2 | 0.00 | 0.00 | 0.00 | 65 | 1016.8 |
| 20260901143645 | 18 | 53 | 0.0 | 1.6 | 0.00 | 0.00 | 0.00 | 66 | 1017.1 |
| 20260901143141 | 18 | 65 | 0.0 | 0.0 | 0.00 | 0.00 | 0.00 | 68 | 1016.9 |
| 20260901142637 | 18 | 109 | 0.0 | 0.0 | 0.00 | 0.00 | 0.00 | 69 | 1017.2 |
| 20260901142136 | 17 | 171 | 0.0 | 0.0 | 0.00 | 0.00 | 0.00 | 68 | 1017.1 |
| 20260901141631 | 17 | 132 | 0.0 | 0.0 | 0.00 | 0.00 | 0.00 | 69 | 1017.2 |
| 20260901141131 | 18 | 200 | 8.0 | 9.7 | 0.00 | 0.00 | 0.00 | 70 | 1017.3 |
| 20260901140630 | 18 | 181 | 4.8 | 4.8 | 0.00 | 0.00 | 0.00 | 69 | 1017.4 |
| 20260901140129 | 18 | 59 | 0.0 | 1.6 | 0.00 | 0.00 | 0.00 | 67 | 1017.3 |
| 20260901135624 | 17 | 49 | 1.6 | 1.6 | 0.00 | 0.00 | 0.00 | 71 | 1017.0 |
| 20260901135119 | 16 | 35 | 1.6 | 1.6 | 0.00 | 0.00 | 0.00 | 71 | 1016.8 |
| 20260901134615 | 16 | 51 | 1.6 | 1.6 | 0.00 | 0.00 | 0.00 | 71 | 1016.8 |
| 20260901134110 | 16 | 65 | 0.0 | 0.0 | 0.00 | 0.00 | 0.00 | 71 | 1016.8 |
| 20260901133608 | 15 | 55 | 0.0 | 0.0 | 0.00 | 0.00 | 0.00 | 76 | 1017.0 |
| 20260901133108 | 15 | 36 | 0.0 | 0.0 | 0.00 | 0.00 | 0.00 | 73 | 1017.1 |
| 20260901132603 | 16 | 66 | 0.0 | 0.0 | 0.00 | 0.00 | 0.00 | 71 | 1017.2 |
| 20260901132102 | 16 | 65 | 0.0 | 0.0 | 0.00 | 0.00 | 0.00 | 71 | 1017.2 |
| 20260901131602 | 16 | 65 | 0.0 | 0.0 | 0.00 | 0.00 | 0.00 | 74 | 1017.1 |
| 20260901131057 | 15 | 65 | 0.0 | 0.0 | 0.00 | 0.00 | 0.00 | 76 | 1017.1 |
| 20260901130552 | 14 | 65 | 0.0 | 0.0 | 0.00 | 0.00 | 0.00 | 79 | 1017.1 |
| 20260901130050 | 13 | 64 | 0.0 | 0.0 | 0.00 | 0.00 | 0.00 | 79 | 1017.0 |
| 20260901125549 | 13 | 64 | 0.0 | 0.0 | 0.00 | 0.00 | 0.00 | 79 | 1016.7 |
| 20260901125045 | 13 | 62 | 0.0 | 0.0 | 0.00 | 0.00 | 0.00 | 79 | 1016.9 |
| 20260901124544 | 13 | 62 | 0.0 | 0.0 | 0.00 | 0.00 | 0.00 | 79 | 1016.8 |
| 20260901124039 | 12 | 62 | 0.0 | 0.0 | 0.00 | 0.00 | 0.00 | 80 | 1016.7 |
| 20260901123534 | 12 | 50 | 0.0 | 0.0 | 0.00 | 0.00 | 0.00 | 80 | 1016.8 |
| 20260901123033 | 12 | 22 | 0.0 | 0.0 | 0.00 | 0.00 | 0.00 | 80 | 1016.6 |
| 20260901122532 | 12 | 49 | 0.0 | 0.0 | 0.00 | 0.00 | 0.00 | 81 | 1016.6 |
| 20260901122026 | 12 | 29 | 1.6 | 1.6 | 0.00 | 0.00 | 0.00 | 80 | 1016.4 |
| 20260901121521 | 11 | 22 | 3.2 | 3.2 | 0.00 | 0.00 | 0.00 | 81 | 1016.7 |
| 20260901121016 | 11 | 66 | 0.0 | 0.0 | 0.00 | 0.00 | 0.00 | 81 | 1016.6 |
| 20260901120516 | 12 | 48 | 0.0 | 0.0 | 0.00 | 0.00 | 0.00 | 80 | 1016.6 |
| 20260901120012 | 12 | 11 | 3.2 | 3.2 | 0.00 | 0.00 | 0.00 | 80 | 1016.6 |
| 20260901115506 | 12 | 10 | 1.6 | 1.6 | 0.00 | 0.00 | 0.00 | 80 | 1016.4 |
| 20260901115004 | 11 | 22 | 0.0 | 0.0 | 0.00 | 0.00 | 0.00 | 81 | 1016.3 |
| 20260901114459 | 11 | 22 | 0.0 | 0.0 | 0.00 | 0.00 | 0.00 | 81 | 1016.3 |
| 20260901113956 | 11 | 42 | 0.0 | 0.0 | 0.00 | 0.00 | 0.00 | 82 | 1016.3 |
| 20260901113456 | 11 | 62 | 0.0 | 0.0 | 0.00 | 0.00 | 0.00 | 82 | 1016.4 |
| 20260901112951 | 11 | 56 | 0.0 | 0.0 | 0.00 | 0.00 | 0.00 | 83 | 1016.3 |
| 20260901112447 | 11 | 67 | 0.0 | 0.0 | 0.00 | 0.00 | 0.00 | 85 | 1016.3 |
| 20260901111942 | 10 | 82 | 0.0 | 0.0 | 0.00 | 0.00 | 0.00 | 85 | 1016.2 |
| 20260901111440 | 10 | 82 | 0.0 | 0.0 | 0.00 | 0.00 | 0.00 | 84 | 1016.1 |
| 20260901110938 | 11 | 83 | 0.0 | 0.0 | 0.00 | 0.00 | 0.00 | 83 | 1016.2 |
| 20260901110434 | 11 | 58 | 0.0 | 0.0 | 0.00 | 0.00 | 0.00 | 83 | 1016.0 |
| 20260901105930 | 11 | 57 | 0.0 | 0.0 | 0.00 | 0.00 | 0.00 | 83 | 1016.1 |
| 20260901105426 | 11 | 53 | 0.0 | 0.0 | 0.00 | 0.00 | 0.00 | 84 | 1016.0 |
| 20260901104921 | 11 | 70 | 0.0 | 0.0 | 0.00 | 0.00 | 0.00 | 84 | 1016.2 |
| 20260901104416 | 11 | 85 | 0.0 | 0.0 | 0.00 | 0.00 | 0.00 | 83 | 1016.2 |
| 20260901103912 | 11 | 82 | 0.0 | 1.6 | 0.00 | 0.00 | 0.00 | 81 | 1016.1 |
| 20260901103411 | 12 | 112 | 1.6 | 1.6 | 0.00 | 0.00 | 0.00 | 79 | 1016.0 |
| 20260901102907 | 12 | 57 | 0.0 | 1.6 | 0.00 | 0.00 | 0.00 | 78 | 1016.0 |
| 20260901102401 | 12 | 31 | 0.0 | 1.6 | 0.00 | 0.00 | 0.00 | 79 | 1016.0 |
| 20260901101856 | 11 | 68 | 0.0 | 0.0 | 0.00 | 0.00 | 0.00 | 80 | 1016.0 |
| 20260901101350 | 11 | 70 | 0.0 | 0.0 | 0.00 | 0.00 | 0.00 | 80 | 1016.0 |
| 20260901100850 | 12 | 70 | 0.0 | 0.0 | 0.00 | 0.00 | 0.00 | 79 | 1015.8 |
| 20260901100345 | 12 | 68 | 0.0 | 0.0 | 0.00 | 0.00 | 0.00 | 77 | 1015.8 |
| 20260901095838 | 13 | 53 | 0.0 | 0.0 | 0.00 | 0.00 | 0.00 | 76 | 1015.9 |
| 20260901095330 | 12 | 62 | 0.0 | 0.0 | 0.00 | 0.00 | 0.00 | 78 | 1016.0 |
| 20260901094824 | 12 | 73 | 0.0 | 0.0 | 0.00 | 0.00 | 0.00 | 77 | 1015.8 |
| 20260901094319 | 12 | 73 | 0.0 | 0.0 | 0.00 | 0.00 | 0.00 | 77 | 1015.8 |
| 20260901093815 | 12 | 73 | 0.0 | 0.0 | 0.00 | 0.00 | 0.00 | 77 | 1016.1 |
| 20260901093313 | 12 | 69 | 0.0 | 0.0 | 0.00 | 0.00 | 0.00 | 78 | 1016.0 |
| 20260901092810 | 12 | 74 | 0.0 | 0.0 | 0.00 | 0.00 | 0.00 | 79 | 1015.9 |
| 20260901092306 | 12 | 73 | 0.0 | 0.0 | 0.00 | 0.00 | 0.00 | 79 | 1016.0 |
| 20260901091801 | 12 | 90 | 0.0 | 0.0 | 0.00 | 0.00 | 0.00 | 79 | 1015.8 |
| 20260901091255 | 12 | 76 | 0.0 | 0.0 | 0.00 | 0.00 | 0.00 | 78 | 1015.7 |
| 20260901090750 | 12 | 51 | 1.6 | 1.6 | 0.00 | 0.00 | 0.00 | 78 | 1015.6 |
| 20260901090245 | 12 | 333 | 0.0 | 0.0 | 0.00 | 0.00 | 0.00 | 77 | 1015.8 |
| 20260901085741 | 12 | 332 | 1.6 | 1.6 | 0.00 | 0.00 | 0.00 | 76 | 1015.6 |
| 20260901085236 | 12 | 309 | 1.6 | 1.6 | 0.00 | 0.00 | 0.00 | 76 | 1015.7 |
| 20260901084732 | 13 | 301 | 1.6 | 1.6 | 0.00 | 0.00 | 0.00 | 75 | 1015.7 |
| 20260901084229 | 13 | 271 | 1.6 | 3.2 | 0.00 | 0.00 | 0.00 | 75 | 1015.5 |
| 20260901083728 | 12 | 143 | 1.6 | 1.6 | 0.00 | 0.00 | 0.00 | 76 | 1015.7 |
| 20260901083227 | 12 | 130 | 0.0 | 1.6 | 0.00 | 0.00 | 0.00 | 78 | 1015.4 |
| 20260901082726 | 12 | 102 | 0.0 | 0.0 | 0.00 | 0.00 | 0.00 | 78 | 1015.5 |
| 20260901082222 | 12 | 102 | 0.0 | 0.0 | 0.00 | 0.00 | 0.00 | 78 | 1015.5 |
| 20260901081718 | 12 | 153 | 3.2 | 3.2 | 0.00 | 0.00 | 0.00 | 77 | 1015.6 |
| 20260901081217 | 13 | 149 | 1.6 | 1.6 | 0.00 | 0.00 | 0.00 | 75 | 1015.3 |
| 20260901080712 | 13 | 87 | 1.6 | 1.6 | 0.00 | 0.00 | 0.00 | 73 | 1015.5 |
| 20260901080211 | 14 | 39 | 1.6 | 1.6 | 0.00 | 0.00 | 0.00 | 70 | 1015.6 |
| 20260901075712 | 15 | 31 | 1.6 | 1.6 | 0.00 | 0.00 | 0.00 | 69 | 1015.6 |
| 20260901075211 | 15 | 12 | 4.8 | 4.8 | 0.00 | 0.00 | 0.00 | 68 | 1015.4 |
| 20260901074706 | 15 | 26 | 4.8 | 4.8 | 0.00 | 0.00 | 0.00 | 68 | 1015.5 |
| 20260901074202 | 15 | 26 | 1.6 | 1.6 | 0.00 | 0.00 | 0.00 | 67 | 1015.6 |
| 20260901073658 | 16 | 353 | 3.2 | 3.2 | 0.00 | 0.00 | 0.00 | 65 | 1015.6 |
| 20260901073153 | 15 | 38 | 0.0 | 0.0 | 0.00 | 0.00 | 0.00 | 66 | 1015.6 |
| 20260901072648 | 15 | 64 | 0.0 | 0.0 | 0.00 | 0.00 | 0.00 | 68 | 1015.9 |
| 20260901072143 | 14 | 64 | 0.0 | 0.0 | 0.00 | 0.00 | 0.00 | 70 | 1015.7 |
| 20260901071642 | 13 | 64 | 0.0 | 0.0 | 0.00 | 0.00 | 0.00 | 71 | 1015.7 |
| 20260901071136 | 13 | 64 | 0.0 | 0.0 | 0.00 | 0.00 | 0.00 | 72 | 1015.7 |
| 20260901070630 | 13 | 65 | 0.0 | 0.0 | 0.00 | 0.00 | 0.00 | 74 | 1015.6 |